Time,TemperatureF,DewpointF,PressureIn,WindDirection,WindDirectionDegrees,WindSpeedMPH,WindSpeedGustMPH,Humidity,HourlyPrecipIn,Conditions,Clouds,dailyrainin,SoftwareType,DateUTC
2013-01-22 00:10:00,49.5,5.2,30.02,West,270,0.0,-999.0,16,-99.99,,,0.00,Acu-Link.com,2013-01-22 08:10:00,
2013-01-22 00:25:00,49.5,5.2,30.02,North,0,1.1,-999.0,16,-99.99,,,0.00,Acu-Link.com,2013-01-22 08:25:00,
2013-01-22 00:40:00,48.2,5.5,30.03,NE,45,0.0,-999.0,17,-99.99,,,0.00,Acu-Link.com,2013-01-22 08:40:00,
2013-01-22 00:56:00,46.4,7.5,30.03,NNE,22,2.2,-999.0,20,-99.99,,,0.00,Acu-Link.com,2013-01-22 08:56:00,
2013-01-22 01:14:00,46.0,8.3,30.03,NE,45,0.0,-999.0,21,-99.99,,,0.00,Acu-Link.com,2013-01-22 09:14:00,
2013-01-22 01:30:00,45.5,9.9,30.03,ENE,67,2.2,-999.0,23,-99.99,,,0.00,Acu-Link.com,2013-01-22 09:30:00,
2013-01-22 01:45:00,44.8,11.2,30.04,North,0,0.0,-999.0,25,-99.99,,,0.00,Acu-Link.com,2013-01-22 09:45:00,
2013-01-22 02:00:00,44.8,9.3,30.03,NNE,22,0.0,-999.0,23,-99.99,,,0.00,Acu-Link.com,2013-01-22 10:00:00,
2013-01-22 02:16:00,45.3,8.7,30.03,WNW,292,0.0,-999.0,22,-99.99,,,0.00,Acu-Link.com,2013-01-22 10:16:00,
2013-01-22 02:31:00,45.0,6.4,30.03,West,270,1.1,-999.0,20,-99.99,,,0.00,Acu-Link.com,2013-01-22 10:31:00,
2013-01-22 02:47:00,44.2,6.8,30.03,NNE,22,2.2,-999.0,21,-99.99,,,0.00,Acu-Link.com,2013-01-22 10:47:00,
2013-01-22 03:02:00,43.3,8.0,30.03,NNW,337,0.0,-999.0,23,-99.99,,,0.00,Acu-Link.com,2013-01-22 11:02:00,
2013-01-22 03:17:00,43.0,6.8,30.03,West,270,0.0,-999.0,22,-99.99,,,0.00,Acu-Link.com,2013-01-22 11:17:00,
2013-01-22 03:33:00,42.4,11.6,30.03,NE,45,1.7,-999.0,28,-99.99,,,0.00,Acu-Link.com,2013-01-22 11:33:00,
2013-01-22 03:48:00,41.9,11.2,30.03,WSW,247,1.1,-999.0,28,-99.99,,,0.00,Acu-Link.com,2013-01-22 11:48:00,
2013-01-22 04:03:00,41.7,13.3,30.03,SW,225,0.0,-999.0,31,-99.99,,,0.00,Acu-Link.com,2013-01-22 12:03:00,
2013-01-22 04:20:00,41.5,12.4,30.04,NNE,22,0.0,-999.0,30,-99.99,,,0.00,Acu-Link.com,2013-01-22 12:20:00,
2013-01-22 04:35:00,42.1,7.9,30.03,West,270,1.7,-999.0,24,-99.99,,,0.00,Acu-Link.com,2013-01-22 12:35:00,
2013-01-22 04:50:00,43.5,8.2,30.03,SW,225,1.7,-999.0,23,-99.99,,,0.00,Acu-Link.com,2013-01-22 12:50:00,
2013-01-22 05:06:00,43.9,12.9,30.03,SSW,202,0.0,-999.0,28,-99.99,,,0.00,Acu-Link.com,2013-01-22 13:06:00,
2013-01-22 05:21:00,43.2,8.9,30.03,SSW,202,0.0,-999.0,24,-99.99,,,0.00,Acu-Link.com,2013-01-22 13:21:00,
2013-01-22 05:36:00,42.6,15.5,30.03,South,180,0.0,-999.0,33,-99.99,,,0.00,Acu-Link.com,2013-01-22 13:36:00,
2013-01-22 05:52:00,42.3,7.2,30.04,WNW,292,0.0,-999.0,23,-99.99,,,0.00,Acu-Link.com,2013-01-22 13:52:00,
2013-01-22 06:07:00,41.9,10.4,30.04,WNW,292,1.1,-999.0,27,-99.99,,,0.00,Acu-Link.com,2013-01-22 14:07:00,
2013-01-22 06:22:00,42.3,7.2,30.05,NNE,22,0.0,-999.0,23,-99.99,,,0.00,Acu-Link.com,2013-01-22 14:22:00,
2013-01-22 06:38:00,42.6,10.1,30.05,South,180,0.0,-999.0,26,-99.99,,,0.00,Acu-Link.com,2013-01-22 14:38:00,
2013-01-22 06:53:00,42.8,10.3,30.05,NNW,337,0.0,-999.0,26,-99.99,,,0.00,Acu-Link.com,2013-01-22 14:53:00,
2013-01-22 07:08:00,42.4,7.3,30.05,SSE,157,0.0,-999.0,23,-99.99,,,0.00,Acu-Link.com,2013-01-22 15:08:00,
2013-01-22 07:24:00,41.9,10.4,30.05,North,0,0.0,-999.0,27,-99.99,,,0.00,Acu-Link.com,2013-01-22 15:24:00,
2013-01-22 07:40:00,42.6,12.6,30.05,SSW,202,0.0,-999.0,29,-99.99,,,0.00,Acu-Link.com,2013-01-22 15:40:00,
2013-01-22 07:55:00,45.3,16.5,30.05,NE,45,0.0,-999.0,31,-99.99,,,0.00,Acu-Link.com,2013-01-22 15:55:00,
2013-01-22 08:11:00,53.2,15.4,30.05,West,270,0.0,-999.0,22,-99.99,,,0.00,Acu-Link.com,2013-01-22 16:11:00,
2013-01-22 08:42:00,59.2,17.0,30.05,West,270,0.0,-999.0,19,-99.99,,,0.00,Acu-Link.com,2013-01-22 16:42:00,
2013-01-22 09:13:00,66.7,12.5,30.06,SW,225,0.0,-999.0,12,-99.99,,,0.00,Acu-Link.com,2013-01-22 17:13:00,
2013-01-22 09:28:00,70.2,8.8,30.07,South,180,0.0,-999.0,9,-99.99,,,0.00,Acu-Link.com,2013-01-22 17:28:00,
2013-01-22 09:44:00,69.6,8.3,30.06,WSW,247,0.0,-999.0,9,-99.99,,,0.00,Acu-Link.com,2013-01-22 17:44:00,
2013-01-22 09:59:00,71.2,0.7,30.07,West,270,0.0,-999.0,6,-99.99,,,0.00,Acu-Link.com,2013-01-22 17:59:00,
2013-01-22 10:15:00,73.2,-1.7,30.07,South,180,0.0,-999.0,5,-99.99,,,0.00,Acu-Link.com,2013-01-22 18:15:00,
2013-01-22 10:30:00,73.8,-6.0,30.06,ENE,67,0.0,-999.0,4,-99.99,,,0.00,Acu-Link.com,2013-01-22 18:30:00,
2013-01-22 10:46:00,73.8,-11.8,30.06,WSW,247,0.0,-999.0,3,-99.99,,,0.00,Acu-Link.com,2013-01-22 18:46:00,
2013-01-22 11:01:00,76.1,-4.4,30.05,WNW,292,0.0,-999.0,4,-99.99,,,0.00,Acu-Link.com,2013-01-22 19:01:00,
2013-01-22 11:32:00,77.5,-17.4,30.03,South,180,0.0,-999.0,2,-99.99,,,0.00,Acu-Link.com,2013-01-22 19:32:00,
2013-01-22 11:47:00,78.6,2.1,30.02,SSW,202,1.7,-999.0,5,-99.99,,,0.00,Acu-Link.com,2013-01-22 19:47:00,
2013-01-22 12:03:00,78.8,-16.5,30.01,South,180,3.7,-999.0,2,-99.99,,,0.00,Acu-Link.com,2013-01-22 20:03:00,
2013-01-22 12:18:00,78.8,-29.6,30.01,West,270,1.7,-999.0,1,-99.99,,,0.00,Acu-Link.com,2013-01-22 20:18:00,
2013-01-22 12:34:00,79.2,-8.2,29.99,SSE,157,1.1,-999.0,3,-99.99,,,0.00,Acu-Link.com,2013-01-22 20:34:00,
2013-01-22 12:49:00,79.7,-7.9,29.99,SW,225,2.2,-999.0,3,-99.99,,,0.00,Acu-Link.com,2013-01-22 20:49:00,
2013-01-22 13:05:00,80.6,-7.3,29.99,South,180,1.1,-999.0,3,-99.99,,,0.00,Acu-Link.com,2013-01-22 21:05:00,
2013-01-22 13:20:00,81.0,-1.0,29.98,SSW,202,0.0,-999.0,4,-99.99,,,0.00,Acu-Link.com,2013-01-22 21:20:00,
2013-01-22 13:36:00,80.1,3.1,29.98,SSW,202,2.2,-999.0,5,-99.99,,,0.00,Acu-Link.com,2013-01-22 21:36:00,
2013-01-22 13:51:00,81.7,-0.5,29.97,SE,135,0.0,-999.0,4,-99.99,,,0.00,Acu-Link.com,2013-01-22 21:51:00,
2013-01-22 14:06:00,81.0,-1.0,29.97,SSE,157,2.7,-999.0,4,-99.99,,,0.00,Acu-Link.com,2013-01-22 22:06:00,
2013-01-22 14:22:00,79.2,2.5,29.97,SSE,157,2.7,-999.0,5,-99.99,,,0.00,Acu-Link.com,2013-01-22 22:22:00,
2013-01-22 14:38:00,77.7,8.7,29.97,South,180,0.0,-999.0,7,-99.99,,,0.00,Acu-Link.com,2013-01-22 22:38:00,
2013-01-22 14:53:00,76.8,8.1,29.96,South,180,0.0,-999.0,7,-99.99,,,0.00,Acu-Link.com,2013-01-22 22:53:00,
2013-01-22 15:08:00,76.5,4.5,29.97,South,180,0.0,-999.0,6,-99.99,,,0.00,Acu-Link.com,2013-01-22 23:08:00,
2013-01-22 15:24:00,76.5,13.5,29.97,West,270,0.0,-999.0,9,-99.99,,,0.00,Acu-Link.com,2013-01-22 23:24:00,
2013-01-22 15:39:00,76.1,13.2,29.96,South,180,0.0,-999.0,9,-99.99,,,0.00,Acu-Link.com,2013-01-22 23:39:00,
2013-01-22 15:55:00,77.2,11.4,29.97,SSE,157,0.0,-999.0,8,-99.99,,,0.00,Acu-Link.com,2013-01-22 23:55:00,
2013-01-22 16:10:00,76.5,13.5,29.97,South,180,0.0,-999.0,9,-99.99,,,0.00,Acu-Link.com,2013-01-23 00:10:00,
2013-01-22 16:25:00,73.0,21.0,29.97,South,180,0.0,-999.0,14,-99.99,,,0.00,Acu-Link.com,2013-01-23 00:25:00,
2013-01-22 16:41:00,70.2,24.7,29.97,South,180,0.0,-999.0,18,-99.99,,,0.00,Acu-Link.com,2013-01-23 00:41:00,
2013-01-22 17:12:00,67.1,27.0,29.97,SSW,202,0.0,-999.0,22,-99.99,,,0.00,Acu-Link.com,2013-01-23 01:12:00,
2013-01-22 17:42:00,63.5,28.0,29.98,South,180,0.0,-999.0,26,-99.99,,,0.00,Acu-Link.com,2013-01-23 01:42:00,
2013-01-22 17:58:00,62.1,26.8,29.98,SSW,202,0.0,-999.0,26,-99.99,,,0.00,Acu-Link.com,2013-01-23 01:58:00,
2013-01-22 18:13:00,60.6,24.6,29.98,SSW,202,0.0,-999.0,25,-99.99,,,0.00,Acu-Link.com,2013-01-23 02:13:00,
2013-01-22 18:29:00,58.6,13.9,29.99,West,270,0.0,-999.0,17,-99.99,,,0.00,Acu-Link.com,2013-01-23 02:29:00,
2013-01-22 18:45:00,58.5,17.6,29.99,NW,315,0.0,-999.0,20,-99.99,,,0.00,Acu-Link.com,2013-01-23 02:45:00,
2013-01-22 19:00:00,59.0,14.3,30.00,West,270,0.0,-999.0,17,-99.99,,,0.00,Acu-Link.com,2013-01-23 03:00:00,
2013-01-22 19:15:00,59.2,18.2,30.00,WNW,292,0.0,-999.0,20,-99.99,,,0.00,Acu-Link.com,2013-01-23 03:15:00,
2013-01-22 19:31:00,58.5,17.6,30.01,North,0,0.0,-999.0,20,-99.99,,,0.00,Acu-Link.com,2013-01-23 03:31:00,
2013-01-22 20:01:00,56.5,18.1,30.01,West,270,0.0,-999.0,22,-99.99,,,0.00,Acu-Link.com,2013-01-23 04:01:00,
2013-01-22 20:17:00,55.4,17.2,30.01,WNW,292,0.0,-999.0,22,-99.99,,,0.00,Acu-Link.com,2013-01-23 04:17:00,
2013-01-22 20:33:00,55.6,14.0,30.02,West,270,1.7,-999.0,19,-99.99,,,0.00,Acu-Link.com,2013-01-23 04:33:00,
2013-01-22 20:48:00,56.3,16.9,30.01,WNW,292,0.0,-999.0,21,-99.99,,,0.00,Acu-Link.com,2013-01-23 04:48:00,
2013-01-22 21:03:00,55.8,19.6,30.02,SW,225,1.7,-999.0,24,-99.99,,,0.00,Acu-Link.com,2013-01-23 05:03:00,
2013-01-22 21:19:00,55.0,18.9,30.02,WNW,292,0.0,-999.0,24,-99.99,,,0.00,Acu-Link.com,2013-01-23 05:19:00,
2013-01-22 21:34:00,55.6,18.4,30.02,WSW,247,1.7,-999.0,23,-99.99,,,0.00,Acu-Link.com,2013-01-23 05:34:00,
2013-01-22 21:50:00,54.3,18.3,30.03,West,270,1.1,-999.0,24,-99.99,,,0.00,Acu-Link.com,2013-01-23 05:50:00,
2013-01-22 22:05:00,53.4,16.6,30.03,NNW,337,1.7,-999.0,23,-99.99,,,0.00,Acu-Link.com,2013-01-23 06:05:00,
2013-01-22 22:20:00,52.9,17.1,30.03,WNW,292,0.0,-999.0,24,-99.99,,,0.00,Acu-Link.com,2013-01-23 06:20:00,
2013-01-22 22:36:00,52.9,19.8,30.03,West,270,0.0,-999.0,27,-99.99,,,0.00,Acu-Link.com,2013-01-23 06:36:00,
2013-01-22 23:07:00,50.9,19.0,30.04,NNW,337,0.0,-999.0,28,-99.99,,,0.00,Acu-Link.com,2013-01-23 07:07:00,
2013-01-22 23:22:00,50.9,19.0,30.04,WSW,247,0.0,-999.0,28,-99.99,,,0.00,Acu-Link.com,2013-01-23 07:22:00,
2013-01-22 23:37:00,50.7,18.8,30.04,NW,315,0.0,-999.0,28,-99.99,,,0.00,Acu-Link.com,2013-01-23 07:37:00,
2013-01-22 23:53:00,50.9,19.0,30.04,West,270,2.2,-999.0,28,-99.99,,,0.00,Acu-Link.com,2013-01-23 07:53:00,